Tracking 22879 objects as of 21-Apr-2021
HD Live streaming from Space Station
objects crossing your sky now

COSMOS 1321

Track COSMOS 1321 now!
10-day predictions
COSMOS 1321 is classified as:


NORAD ID: 12976
Int'l Code: 1981-116B
Perigee: 1,488.9 km
Apogee: 1,638.0 km
Inclination: 74.0 °
Period: 117.2 minutes
Semi major axis: 7934 km
RCS: 0.6999 m2 (medium)
Launch date: November 28, 1981
Source: Commonwealth of Independent States (former USSR) (CIS)
Launch site: PLESETSK MISSILE AND SPACE COMPLEX (PKMTR)
aabbcc
Your satellite tracking list
Your tracking list is empty




NASA's NSSDC Master Catalog

Two Line Element Set (TLE):
1 12976U 81116B   21110.96978109  .00000005  00000-0  16776-3 0  9991
2 12976  73.9797 296.2100 0093968  92.7748 342.6558 12.28370354766491
Source of the keplerian elements: AFSPC